SCP
0 0 0 0 0 -0 -0 -0 0 0 0 0 0 0 0 0 0 0 0 0 0 0 0 0 0 0 0 0 0 0 0 0 0 0 0 0 0 0 0 0 0 0 0
0 0 0 -0 0 -0 0 0 0 0 0 0 0 0 0 0 0 0 0 0 0 0 0 0 0 0 0 0 0 0 0 0 0 0 0 0 0 0 0 0 0 0 0
0 0 0 0 0 0 0 0 0 0 0 0 0 0 0 0 0 0 0 0 0 0 0 0 0 0 0 0 0 0 0 0 0 0 0 0 0 0 0 0 0 0 0
-0 -0 -0 0 0 0 0 0 0 0 0 0 0 0 0 0 0 0 0 0 0 0 0 0 0 0 0 0 0 0 0 0 0 0 0 0 0 0 0 0 0 0 0
-0 -0 0 0 0 0 0 0 0 0 0 0 0 0 0 0 0 0 0 0 0 0 0 0 0 0 0 0 0 0 0 0 0 0 0 0 0 0 0 0 0 0 0
-0 -0 -0 -0 -0 0 0 0 0 0 0 0 0 0 0 0 0 0 0 0 0 0 0 0 0 0 0 0 0 0 0 0 0 0 0 0 0 0 0 0 0 0 0
-0 -0 -0 0 0 -0 0 0 0 0 0 0 0 0 0 0 0 0 0 0 0 0 0 0 0 0 0 0 0 0 0 0 0 0 0 0 0 0 0 0 0 0 0
-0 -0 -0 -0 -0 -0 -0 0 0 0 0 0 0 0 0 0 0 0 0 0 0 0 0 0 0 0 0 0 0 0 0 0 0 0 0 0 0 0 0 0 0 0 0
-0 -0 -0 -0 -0 -0 0 0 -0 -0 0 0 0 0 0 0 0 0 0 0 0 0 0 0 0 0 0 0 0 0 0 0 0 0 0 0 0 0 0 0 0 0 0
-0 -0 -0 -0 -0 -0 -0 -0 0 0 0 0 0 0 0 0 0 0 0 0 0 0 0 0 0 0 0 0 0 0 0 0 0 0 0 0 0 0 0 0 0 0 0
-0 -0 -0 -0 -0 0 -0 0 0 0 0 0 0 0 0 0 0 0 0 0 0 0 0 0 0 0 0 0 0 0 0 0 0 0 0 0 0 0 0 0 0 0 0
-0 -0 -0 -0 0 0 -0 0 0 0 0 0 0 0 0 0 0 0 0 0 0 0 0 0 0 0 0 0 0 0 0 0 0 0 0 0 0 0 0 0 0 0 0
-0 -0 -0 -0 0 -0 -0 0 0 0 0 0 0 0 0 0 0 0 0 0 0 0 0 0 0 0 0 0 0 0 0 0 0 0 0 0 0 0 0 0 0 0 0
-0 -0 -0 -0 -0 0 0 0 0 0 0 0 0 0 0 0 0 0 0 0 0 0 0 0 0 0 0 0 0 0 0 0 0 0 0 0 0 0 0 0 0 0 0
-0 -0 -0 -0 -0 0 0 0 0 0 0 0 0 0 0 0 0 0 0 0 0 0 0 0 0 0 0 0 0 0 0 0 0 0 0 0 0 0 0 0 0 0 0
-0 -0 0 0 0 0 0 0 0 -0 -0 0 0 0 0 0 0 0 0 0 0 0 0 0 0 0 0 0 0 0 0 0 0 0 0 0 0 0 0 0 0 0 0
-0 -0 0 0 0 0 0 0 0 0 0 0 0 0 0 0 0 0 0 0 0 0 0 0 0 0 0 0 0 0 0 0 0 0 0 0 0 0 0 0 0 0 0
-0 -0 0 0 0 0 0 0 0 0 0 0 0 0 0 0 0 0 0 0 0 0 0 0 0 0 0 0 0 0 0 0 0 0 0 0 0 0 0 0 0 0 0
-0 -0 0 0 0 0 0 0 0 0 0 0 0 0 0 0 0 0 0 0 0 0 0 0 0 0 0 0 0 0 0 0 0 0 0 0 0 0 0 0 0 0 0
-0 -0 -0 0 0 0 0 0 0 0 0 0 0 0 0 0 -0 -0 -0 0 0 0 0 0 0 0 0 0 0 0 0 0 0 0 0 0 0 0 0 0 0 0 0
0 0 -0 0 0 0 0 0 0 0 0 0 0 0 0 0 0 0 0 0 0 0 0 0 0 0 0 0 0 0 0 0 0 0 0 0 0 0 0 0 0 0 0
0 0 0 0 0 0 0 0 0 0 0 0 0 0 0 0 0 0 0 0 0 0 0 0 0 0 0 0 0 0 0 0 0 0 0 0 0 0 0 0 0 0 0
0 0 0 0 0 0 0 0 0 0 0 0 0 0 0 0 0 0 0 0 0 0 0 0 0 0 0 0 0 0 0 0 0 0 0 0 0 0 0 0 0 0 0
0 0 0 0 0 0 0 0 0 0 0 0 0 0 0 0 0 0 0 0 0 0 0 0 0 0 0 0 0 0 0 0 0 0 0 0 0 0 0 0 0 0 0
0 0 0 0 0 0 0 0 0 0 0 0 0 0 0 0 0 0 0 0 0 0 0 0 0 0 0 0 0 0 0 0 0 0 0 0 0 0 0 0 0 0 0
0 0 0 0 0 0 0 0 0 0 0 0 0 0 0 0 0 0 0 0 0 0 0 0 0 0 0 0 0 0 0 0 0 0 0 0 0 0 0 0 0 0 0
Wind_Speed_500mb
31 26 26 21 28 28 24 26 13 15 20 19 14 13 12 10 8 7 7 1 3 4 6 11 9 7 8 10 11 14 19 22 24 24 24 23 22 17 14 16 26 29 30
30 33 24 25 30 35 20 11 16 16 12 10 11 13 11 10 10 10 5 5 1 4 7 7 9 13 11 12 13 15 17 19 19 21 18 16 17 15 15 17 27 25 26
32 33 30 29 33 30 25 18 11 9 5 6 10 10 9 10 15 14 13 6 4 13 18 21 25 24 28 29 28 25 23 18 12 11 13 12 11 10 11 15 19 23 25
40 38 39 36 30 21 15 11 8 5 8 14 16 18 19 16 13 15 17 19 21 22 22 23 27 27 29 32 31 33 32 32 29 25 20 14 16 20 17 18 16 16 18
44 45 41 27 19 15 14 12 11 13 17 18 21 24 26 28 28 22 18 19 21 23 24 25 29 32 32 33 38 42 40 38 36 32 33 29 28 24 27 25 23 22 15
48 41 29 19 16 18 17 18 20 22 22 22 23 21 23 27 28 31 27 21 22 23 26 26 26 26 29 31 35 36 39 41 43 42 42 42 40 37 35 34 31 29 26
41 35 28 23 25 25 26 27 25 24 24 23 21 19 23 29 30 29 30 27 20 23 23 23 23 26 26 27 27 33 45 45 43 43 42 41 41 36 32 29 29 28 27
36 31 31 31 32 33 33 29 30 28 24 21 20 19 18 24 22 21 28 30 29 32 32 29 28 32 37 38 33 29 35 43 45 47 44 41 43 45 40 44 41 36 22
35 36 36 36 38 37 32 28 25 21 19 18 18 16 15 19 19 18 24 29 33 44 52 53 45 38 34 33 34 36 23 28 30 25 27 28 29 30 30 25 33 35 34
41 39 39 39 36 35 30 27 24 18 19 19 19 16 14 17 19 14 18 23 38 43 42 39 37 36 32 29 30 32 32 29 25 19 22 19 19 16 22 32 31 25 26
45 44 45 42 37 32 28 25 19 19 22 22 20 21 19 14 17 17 18 18 26 30 32 30 27 23 18 22 19 23 26 25 26 30 29 24 17 17 19 19 23 24 23
47 49 48 45 40 34 28 26 22 25 28 27 26 27 25 24 19 19 19 17 22 21 20 19 20 19 17 18 20 22 22 26 30 28 25 21 22 22 22 17 15 19 13
54 53 50 46 40 36 32 30 34 31 27 28 23 23 26 24 20 17 15 14 15 12 14 14 13 11 14 21 26 29 32 33 32 31 26 26 26 26 27 27 28 24 18
57 55 52 49 46 40 34 34 34 34 30 24 22 18 16 16 15 10 15 19 11 11 16 13 9 10 17 23 30 28 30 32 34 37 28 27 26 25 28 30 33 33 27
60 58 56 52 48 46 43 40 33 25 18 16 13 8 6 5 7 7 17 20 13 16 11 8 7 14 21 26 32 27 24 24 30 33 36 33 31 30 33 39 44 44 33
68 64 61 58 54 52 50 46 36 27 20 14 11 6 5 3 9 18 22 21 14 12 8 4 12 17 26 29 30 31 21 20 28 32 38 35 32 35 40 42 34 26 30
70 68 65 62 60 58 53 44 38 34 24 18 12 15 12 10 15 22 21 17 18 16 7 3 12 19 27 26 27 36 17 23 28 35 38 38 41 40 34 26 27 26 31
73 68 68 66 63 56 47 41 34 26 27 25 22 19 16 16 18 27 21 15 17 19 9 4 15 20 31 24 27 37 19 22 32 35 38 44 50 35 30 26 26 29 30
78 74 69 65 59 50 43 44 35 26 25 24 22 24 26 23 19 31 26 20 18 18 12 3 17 19 30 23 24 38 30 26 32 35 42 49 41 31 27 23 24 28 29
79 72 68 63 58 52 45 43 43 39 34 34 25 23 30 33 30 27 28 28 23 23 17 7 17 20 25 26 27 34 30 24 27 37 43 35 34 30 27 24 22 27 28
82 74 69 62 59 56 47 44 43 44 38 35 33 30 20 24 19 24 27 31 26 26 23 13 17 19 22 27 25 33 27 25 28 43 38 33 34 32 28 23 23 18 25
84 78 75 69 62 57 50 41 40 41 39 38 37 40 36 34 36 30 29 34 35 33 27 15 16 18 21 24 25 30 27 30 35 44 36 32 33 32 23 16 19 25 30
88 81 77 72 65 52 48 45 43 48 48 43 40 43 49 50 47 40 32 34 36 32 32 21 16 16 18 20 26 27 30 33 39 39 34 31 31 21 16 18 21 28 31
90 84 80 76 68 58 55 57 58 56 52 51 53 48 50 45 47 36 32 37 39 35 31 24 17 16 15 22 25 30 32 37 39 37 33 30 28 18 21 22 23 31 32
96 91 87 85 78 69 64 63 66 60 64 59 54 55 55 44 44 35 41 38 39 38 32 26 19 14 16 20 24 27 31 35 34 33 32 30 29 22 24 27 30 35 31
102 101 91 89 85 69 66 65 67 59 60 64 61 56 51 44 43 40 46 38 42 41 34 28 22 15 13 13 19 22 25 29 31 31 31 29 29 25 29 36 36 35 39
Wind_Direction_500mb
202 205 207 204 216 230 249 239 235 253 257 273 274 257 240 240 223 226 227 344 355 331 335 319 329 325 316 307 301 284 283 293 298 307 319 321 296 295 291 282 290 310 317
199 201 202 209 220 230 252 257 260 250 252 251 238 223 211 201 186 192 173 113 213 296 328 336 27 23 353 350 335 322 315 311 312 325 332 336 331 327 300 292 299 307 313
199 211 217 219 226 234 242 252 245 230 233 212 196 187 184 164 133 128 118 114 94 93 82 71 65 58 55 51 48 43 31 15 356 331 352 13 8 358 325 304 309 303 306
209 219 218 213 209 220 235 228 217 190 141 136 127 121 108 110 129 130 115 91 84 72 63 56 60 56 57 53 49 48 44 44 48 52 61 39 18 18 5 7 348 322 313
210 201 196 198 194 197 191 179 152 138 123 118 114 109 104 105 102 92 76 67 64 63 66 62 62 60 60 60 57 54 52 48 47 51 54 52 43 30 25 17 5 2 359
198 191 199 191 189 185 177 154 143 131 123 118 115 111 108 105 99 84 69 68 72 72 71 69 71 60 55 52 50 45 45 47 48 42 42 40 35 31 24 17 13 18 16
192 194 191 186 181 171 156 144 139 134 134 131 122 115 104 97 95 78 56 59 76 75 71 71 72 69 61 49 46 52 62 56 53 48 43 41 36 25 23 21 16 3 354
191 195 179 171 167 158 149 149 141 137 139 131 128 124 114 106 98 75 60 61 70 72 72 71 71 72 69 59 52 64 60 56 53 51 51 48 41 42 41 32 27 21 11
190 176 169 167 161 154 152 148 141 143 141 143 140 140 136 116 118 87 62 58 79 81 78 76 76 77 73 66 65 54 61 57 42 41 45 35 29 32 19 19 16 17 22
180 172 167 164 163 159 162 152 144 141 143 139 140 138 128 110 115 98 67 55 91 93 91 86 81 75 67 59 56 48 46 45 29 21 25 17 12 12 11 5 2 358 4
175 170 166 164 165 168 159 150 145 142 138 129 128 127 138 140 119 118 100 91 100 93 87 84 72 66 63 47 47 37 31 11 1 357 356 359 3 5 353 358 2 357 348
176 172 168 169 171 167 163 158 154 149 141 129 123 121 127 135 138 145 146 127 108 95 84 77 79 76 59 37 28 14 1 351 346 343 340 2 14 12 8 4 347 359 359
178 175 174 175 174 172 172 169 159 156 151 136 131 129 128 131 142 155 161 150 118 76 85 94 102 57 27 11 3 349 347 359 16 18 12 21 14 356 342 340 345 350 336
182 180 179 179 177 177 177 175 171 165 162 158 147 132 136 149 149 145 154 145 126 91 115 91 62 32 6 358 359 1 2 7 11 13 8 356 353 351 2 0 352 349 347
186 186 185 184 184 180 177 178 180 177 179 174 174 151 86 129 154 145 147 150 144 138 127 99 30 356 358 4 7 7 3 3 9 10 7 0 353 347 348 349 348 349 351
190 190 189 187 186 186 183 182 183 189 195 192 210 259 219 178 170 164 158 160 150 155 148 55 2 2 360 5 9 10 5 359 2 360 358 357 352 345 343 345 355 6 10
195 192 191 191 191 191 191 194 191 187 197 203 214 222 239 230 198 174 167 171 174 165 182 349 346 4 2 3 10 8 3 360 357 353 357 356 348 343 348 1 2 0 355
198 198 196 195 195 195 199 196 197 205 206 204 207 209 213 210 202 187 188 210 207 201 218 302 353 356 0 2 8 3 356 349 350 351 349 347 343 344 347 350 358 353 346
200 199 201 201 199 200 200 199 203 208 200 189 183 187 181 176 176 185 186 186 197 214 216 277 342 339 1 2 358 358 350 346 346 342 340 338 337 335 347 346 341 347 349
201 203 204 204 199 200 199 204 208 201 190 186 181 173 186 189 181 176 197 205 214 223 231 272 332 339 357 355 343 349 354 344 344 343 341 342 335 327 324 327 334 339 344
200 201 204 204 202 197 196 200 197 195 197 201 204 198 197 212 202 203 204 214 215 229 227 255 320 329 342 347 338 347 354 351 343 344 349 345 341 336 332 324 329 332 347
201 200 202 205 198 197 197 200 207 206 209 211 213 215 219 219 210 209 215 221 222 231 228 248 307 318 329 339 340 350 353 352 349 347 350 346 344 341 344 360 353 343 342
203 200 203 206 206 204 206 210 217 220 220 219 221 222 224 227 223 223 227 220 216 231 224 243 282 295 319 335 346 351 354 352 345 346 348 348 344 343 347 354 348 337 334
205 203 203 203 204 208 211 219 225 224 224 226 228 227 234 233 230 220 220 213 219 222 224 241 256 289 323 342 351 352 351 345 344 345 347 348 346 341 330 337 338 342 337
208 205 203 203 202 204 212 223 229 227 230 234 233 236 239 231 210 204 203 218 222 214 223 230 247 278 319 346 352 347 343 342 343 347 345 345 345 333 321 327 334 337 326
209 208 204 205 206 209 218 223 228 233 233 239 242 242 230 227 207 199 201 221 222 217 218 226 241 273 322 348 347 346 346 348 351 352 346 343 342 335 324 329 332 330 322
Wind_Speed_850mb
31 26 26 21 28 28 24 26 13 15 20 19 14 13 12 10 8 7 7 1 3 4 6 11 9 7 8 10 11 14 19 22 24 24 24 23 22 17 14 16 26 29 30
30 33 24 25 30 35 20 11 16 16 12 10 11 13 11 10 10 10 5 5 1 4 7 7 9 13 11 12 13 15 17 19 19 21 18 16 17 15 15 17 27 25 26
32 33 30 29 33 30 25 18 11 9 5 6 10 10 9 10 15 14 13 6 4 13 18 21 25 24 28 29 28 25 23 18 12 11 13 12 11 10 11 15 19 23 25
40 38 39 36 30 21 15 11 8 5 8 14 16 18 19 16 13 15 17 19 21 22 22 23 27 27 29 32 31 33 32 32 29 25 20 14 16 20 17 18 16 16 18
44 45 41 27 19 15 14 12 11 13 17 18 21 24 26 28 28 22 18 19 21 23 24 25 29 32 32 33 38 42 40 38 36 32 33 29 28 24 27 25 23 22 15
48 41 29 19 16 18 17 18 20 22 22 22 23 21 23 27 28 31 27 21 22 23 26 26 26 26 29 31 35 36 39 41 43 42 42 42 40 37 35 34 31 29 26
41 35 28 23 25 25 26 27 25 24 24 23 21 19 23 29 30 29 30 27 20 23 23 23 23 26 26 27 27 33 45 45 43 43 42 41 41 36 32 29 29 28 27
36 31 31 31 32 33 33 29 30 28 24 21 20 19 18 24 22 21 28 30 29 32 32 29 28 32 37 38 33 29 35 43 45 47 44 41 43 45 40 44 41 36 22
35 36 36 36 38 37 32 28 25 21 19 18 18 16 15 19 19 18 24 29 33 44 52 53 45 38 34 33 34 36 23 28 30 25 27 28 29 30 30 25 33 35 34
41 39 39 39 36 35 30 27 24 18 19 19 19 16 14 17 19 14 18 23 38 43 42 39 37 36 32 29 30 32 32 29 25 19 22 19 19 16 22 32 31 25 26
45 44 45 42 37 32 28 25 19 19 22 22 20 21 19 14 17 17 18 18 26 30 32 30 27 23 18 22 19 23 26 25 26 30 29 24 17 17 19 19 23 24 23
47 49 48 45 40 34 28 26 22 25 28 27 26 27 25 24 19 19 19 17 22 21 20 19 20 19 17 18 20 22 22 26 30 28 25 21 22 22 22 17 15 19 13
54 53 50 46 40 36 32 30 34 31 27 28 23 23 26 24 20 17 15 14 15 12 14 14 13 11 14 21 26 29 32 33 32 31 26 26 26 26 27 27 28 24 18
57 55 52 49 46 40 34 34 34 34 30 24 22 18 16 16 15 10 15 19 11 11 16 13 9 10 17 23 30 28 30 32 34 37 28 27 26 25 28 30 33 33 27
60 58 56 52 48 46 43 40 33 25 18 16 13 8 6 5 7 7 17 20 13 16 11 8 7 14 21 26 32 27 24 24 30 33 36 33 31 30 33 39 44 44 33
68 64 61 58 54 52 50 46 36 27 20 14 11 6 5 3 9 18 22 21 14 12 8 4 12 17 26 29 30 31 21 20 28 32 38 35 32 35 40 42 34 26 30
70 68 65 62 60 58 53 44 38 34 24 18 12 15 12 10 15 22 21 17 18 16 7 3 12 19 27 26 27 36 17 23 28 35 38 38 41 40 34 26 27 26 31
73 68 68 66 63 56 47 41 34 26 27 25 22 19 16 16 18 27 21 15 17 19 9 4 15 20 31 24 27 37 19 22 32 35 38 44 50 35 30 26 26 29 30
78 74 69 65 59 50 43 44 35 26 25 24 22 24 26 23 19 31 26 20 18 18 12 3 17 19 30 23 24 38 30 26 32 35 42 49 41 31 27 23 24 28 29
79 72 68 63 58 52 45 43 43 39 34 34 25 23 30 33 30 27 28 28 23 23 17 7 17 20 25 26 27 34 30 24 27 37 43 35 34 30 27 24 22 27 28
82 74 69 62 59 56 47 44 43 44 38 35 33 30 20 24 19 24 27 31 26 26 23 13 17 19 22 27 25 33 27 25 28 43 38 33 34 32 28 23 23 18 25
84 78 75 69 62 57 50 41 40 41 39 38 37 40 36 34 36 30 29 34 35 33 27 15 16 18 21 24 25 30 27 30 35 44 36 32 33 32 23 16 19 25 30
88 81 77 72 65 52 48 45 43 48 48 43 40 43 49 50 47 40 32 34 36 32 32 21 16 16 18 20 26 27 30 33 39 39 34 31 31 21 16 18 21 28 31
90 84 80 76 68 58 55 57 58 56 52 51 53 48 50 45 47 36 32 37 39 35 31 24 17 16 15 22 25 30 32 37 39 37 33 30 28 18 21 22 23 31 32
96 91 87 85 78 69 64 63 66 60 64 59 54 55 55 44 44 35 41 38 39 38 32 26 19 14 16 20 24 27 31 35 34 33 32 30 29 22 24 27 30 35 31
102 101 91 89 85 69 66 65 67 59 60 64 61 56 51 44 43 40 46 38 42 41 34 28 22 15 13 13 19 22 25 29 31 31 31 29 29 25 29 36 36 35 39
Wind_Direction_850mb
202 205 207 204 216 230 249 239 235 253 257 273 274 257 240 240 223 226 227 344 355 331 335 319 329 325 316 307 301 284 283 293 298 307 319 321 296 295 291 282 290 310 317
199 201 202 209 220 230 252 257 260 250 252 251 238 223 211 201 186 192 173 113 213 296 328 336 27 23 353 350 335 322 315 311 312 325 332 336 331 327 300 292 299 307 313
199 211 217 219 226 234 242 252 245 230 233 212 196 187 184 164 133 128 118 114 94 93 82 71 65 58 55 51 48 43 31 15 356 331 352 13 8 358 325 304 309 303 306
209 219 218 213 209 220 235 228 217 190 141 136 127 121 108 110 129 130 115 91 84 72 63 56 60 56 57 53 49 48 44 44 48 52 61 39 18 18 5 7 348 322 313
210 201 196 198 194 197 191 179 152 138 123 118 114 109 104 105 102 92 76 67 64 63 66 62 62 60 60 60 57 54 52 48 47 51 54 52 43 30 25 17 5 2 359
198 191 199 191 189 185 177 154 143 131 123 118 115 111 108 105 99 84 69 68 72 72 71 69 71 60 55 52 50 45 45 47 48 42 42 40 35 31 24 17 13 18 16
192 194 191 186 181 171 156 144 139 134 134 131 122 115 104 97 95 78 56 59 76 75 71 71 72 69 61 49 46 52 62 56 53 48 43 41 36 25 23 21 16 3 354
191 195 179 171 167 158 149 149 141 137 139 131 128 124 114 106 98 75 60 61 70 72 72 71 71 72 69 59 52 64 60 56 53 51 51 48 41 42 41 32 27 21 11
190 176 169 167 161 154 152 148 141 143 141 143 140 140 136 116 118 87 62 58 79 81 78 76 76 77 73 66 65 54 61 57 42 41 45 35 29 32 19 19 16 17 22
180 172 167 164 163 159 162 152 144 141 143 139 140 138 128 110 115 98 67 55 91 93 91 86 81 75 67 59 56 48 46 45 29 21 25 17 12 12 11 5 2 358 4
175 170 166 164 165 168 159 150 145 142 138 129 128 127 138 140 119 118 100 91 100 93 87 84 72 66 63 47 47 37 31 11 1 357 356 359 3 5 353 358 2 357 348
176 172 168 169 171 167 163 158 154 149 141 129 123 121 127 135 138 145 146 127 108 95 84 77 79 76 59 37 28 14 1 351 346 343 340 2 14 12 8 4 347 359 359
178 175 174 175 174 172 172 169 159 156 151 136 131 129 128 131 142 155 161 150 118 76 85 94 102 57 27 11 3 349 347 359 16 18 12 21 14 356 342 340 345 350 336
182 180 179 179 177 177 177 175 171 165 162 158 147 132 136 149 149 145 154 145 126 91 115 91 62 32 6 358 359 1 2 7 11 13 8 356 353 351 2 0 352 349 347
186 186 185 184 184 180 177 178 180 177 179 174 174 151 86 129 154 145 147 150 144 138 127 99 30 356 358 4 7 7 3 3 9 10 7 0 353 347 348 349 348 349 351
190 190 189 187 186 186 183 182 183 189 195 192 210 259 219 178 170 164 158 160 150 155 148 55 2 2 360 5 9 10 5 359 2 360 358 357 352 345 343 345 355 6 10
195 192 191 191 191 191 191 194 191 187 197 203 214 222 239 230 198 174 167 171 174 165 182 349 346 4 2 3 10 8 3 360 357 353 357 356 348 343 348 1 2 0 355
198 198 196 195 195 195 199 196 197 205 206 204 207 209 213 210 202 187 188 210 207 201 218 302 353 356 0 2 8 3 356 349 350 351 349 347 343 344 347 350 358 353 346
200 199 201 201 199 200 200 199 203 208 200 189 183 187 181 176 176 185 186 186 197 214 216 277 342 339 1 2 358 358 350 346 346 342 340 338 337 335 347 346 341 347 349
201 203 204 204 199 200 199 204 208 201 190 186 181 173 186 189 181 176 197 205 214 223 231 272 332 339 357 355 343 349 354 344 344 343 341 342 335 327 324 327 334 339 344
200 201 204 204 202 197 196 200 197 195 197 201 204 198 197 212 202 203 204 214 215 229 227 255 320 329 342 347 338 347 354 351 343 344 349 345 341 336 332 324 329 332 347
201 200 202 205 198 197 197 200 207 206 209 211 213 215 219 219 210 209 215 221 222 231 228 248 307 318 329 339 340 350 353 352 349 347 350 346 344 341 344 360 353 343 342
203 200 203 206 206 204 206 210 217 220 220 219 221 222 224 227 223 223 227 220 216 231 224 243 282 295 319 335 346 351 354 352 345 346 348 348 344 343 347 354 348 337 334
205 203 203 203 204 208 211 219 225 224 224 226 228 227 234 233 230 220 220 213 219 222 224 241 256 289 323 342 351 352 351 345 344 345 347 348 346 341 330 337 338 342 337
208 205 203 203 202 204 212 223 229 227 230 234 233 236 239 231 210 204 203 218 222 214 223 230 247 278 319 346 352 347 343 342 343 347 345 345 345 333 321 327 334 337 326
209 208 204 205 206 209 218 223 228 233 233 239 242 242 230 227 207 199 201 221 222 217 218 226 241 273 322 348 347 346 346 348 351 352 346 343 342 335 324 329 332 330 322